NAVSTAR 75 (USA 265) 1 41019U 15062A 21110.13875325 .00000057 00000-0 00000-0 0 9990 2 41019 55.5135 104.5304 0067194 214.8207 144.7534 2.00563785 40041 ATLAS 5 CENTAUR R/B 1 41020U 15062B 21110.16458522 .00000069 00000-0 00000-0 0 9994 2 41020 55.8078 112.7033 0191181 313.0332 45.4047 1.90408432 38045